Hourly Data Report for April 01, 2005

TORONTO CITY
ONTARIO

43°40'00.000" N
79°24'00.000" W
112.50 m
6158355
71508
XTO

Download Data

Hourly Data (April 2005)
Hourly Data Report for April 1, 2005
TIME
LST
Temp Definition
°C
Dew Point Definition
°C
Rel Hum Definition
%
Precip. Amount Definition
mm

Wind Dir Definition
10's deg

Wind Spd Definition
km/h
Visibility Definition
km
Stn Press Definition
kPa
Hmdx Definition


Wind Chill Definition


Weather Definition


00:00 9.1 3.9 70   LegendMM LegendMM   99.67     LegendNANA
01:00 8.2 2.9 69   LegendMM LegendMM   99.72     LegendNANA
02:00 7.7 2.5 70   LegendMM LegendMM   99.82     LegendNANA
03:00 7.1 2.3 71   LegendMM LegendMM   99.85     LegendNANA
04:00 7.0 2.7 74   LegendMM LegendMM   99.87     LegendNANA
05:00 7.1 1.4 67   LegendMM LegendMM   100.00     LegendNANA
06:00 6.7 1.3 68   LegendMM LegendMM   100.08     LegendNANA
07:00 6.6 1.1 68   LegendMM LegendMM   100.14     LegendNANA
08:00 7.6 1.3 64   LegendMM LegendMM   100.23     LegendNANA
09:00 8.4 1.6 62   LegendMM LegendMM   100.33     LegendNANA
10:00 9.7 1.1 55   LegendMM LegendMM   100.37     LegendNANA
11:00 11.4 1.8 52   LegendMM LegendMM   100.34     LegendNANA
12:00 12.5 2.8 52   LegendMM LegendMM   100.25     LegendNANA
13:00 12.8 1.5 46   LegendMM LegendMM   100.18     LegendNANA
14:00 13.1 0.8 43   LegendMM LegendMM   100.26     LegendNANA
15:00 10.6 1.8 54   LegendMM LegendMM   100.30     LegendNANA
16:00 11.1 1.6 52   LegendMM LegendMM   100.32     LegendNANA
17:00 11.3 0.7 48   LegendMM LegendMM   100.29     LegendNANA
18:00 10.3 0.5 51   LegendMM LegendMM   100.30     LegendNANA
19:00 9.3 1.1 56   LegendMM LegendMM   100.23     LegendNANA
20:00 9.0 1.6 60   LegendMM LegendMM   100.23     LegendNANA
21:00 8.3 2.1 65   LegendMM LegendMM   100.20     LegendNANA
22:00 7.6 1.4 65   LegendMM LegendMM   100.10     LegendNANA
23:00 7.5 1.4 65   LegendMM LegendMM   100.17     LegendNANA

Notes on Data Quality.

Legend

  • E = Estimated
  • M = Missing
  • NA = Not Available*
  • [empty] = Indicates an unobserved value
Date modified: